Regional Weather Roundup
Issued by NWS Charleston, SC

Current Version | Previous Version | Graphics & Text | Print | Product List | Glossary On
Versions: 1 2 3 4 5 6 7 8 9 10 11 12 13 14 15 16 17 18 19 20 21 22 23 24 25 26 27 28 29 30 31 32 33 34 35 36 37 38 39 40 41 42 43 44 45 46 47 48 49 50
000
ASUS42 KCHS 292327
RWRCHS

REGIONAL WEATHER ROUNDUP
NATIONAL WEATHER SERVICE CHARLESTON SC
700 PM EDT MON JUN 29 2015

NOTE: "FAIR" INDICATES FEW OR NO CLOUDS BELOW 12,000 FEET WITH NO
SIGNIFICANT WEATHER AND/OR OBSTRUCTIONS TO VISIBILITY.

NOT ALL STATIONS ARE QUALITY CONTROLLED BY THE NATIONAL
WEATHER SERVICE. USE DATA WITH CAUTION...ESPECIALLY
DEWPOINT OBSERVATIONS.

SCZ027-030-031-034>040-042>050-300000-
...SOUTHEAST SOUTH CAROLINA...

CITY           SKY/WX    TMP DP  RH WIND       PRES   REMARKS
N CHARLESTON   PTSUNNY   86  61  42 SW10      29.95S
WATERFRONT PAR   N/A     83  72  69 SW10      29.94R
MOUNT PLEASANT FAIR      82  72  69 S13       29.96S
JOHNS ISLAND   FAIR      82  72  69 S13       29.96F
PINOPOLIS      NOT AVBL
MONCKS CORNER  FAIR      84  57  39 SW5       29.94S
SUMMERVILLE    NOT AVBL
BEAUFORT MCAS  PTSUNNY   86  67  52 S3        29.96S
BEAUFORT ARPT  FAIR      82  72  69 S8        29.97R
HILTON HEAD IS MOSUNNY   82  72  69 S8        29.98R
WALTERBORO     MOCLDY    82  61  47 SW6       29.97R
ALLENDALE      FAIR      88  57  35 CALM      29.95S

...SOUTHERN MIDLANDS AND PEE DEE...

CITY           SKY/WX    TMP DP  RH WIND       PRES   REMARKS
GEORGETOWN     NOT AVBL
KINGSTREE      NOT AVBL
ORANGEBURG     MOSUNNY   88  53  30 W6        29.95R
BARNWELL       FAIR      88  57  35 W7        29.96R
AIKEN          FAIR     N/A N/A N/A W6        29.99S
MANNING        FAIR     N/A N/A N/A SW5       29.94S
COLUMBIA       PTSUNNY   87  55  33 W10       29.93S
SUMTER         MOSUNNY   86  57  36 SW10      29.92R
FLORENCE       PTSUNNY   89  55  31 SW6       29.92S
MYRTLE BEACH   NOT AVBL
N MYRTLE BEACH SUNNY     84  71  65 S14       29.94R

$$

GAZ063-065-086>088-099>101-113>116-118-119-134>141-150-300000-
...SOUTHEAST GEORGIA...

CITY           SKY/WX    TMP DP  RH WIND       PRES   REMARKS
SAVANNAH ARPT  PTSUNNY   85  63  47 S9        29.97S
HUNTER AAF     PTSUNNY   86  66  50 S6        29.96R
FORT STEWART   MOSUNNY   86  62  44 SW8       29.96R
STATESBORO     MOSUNNY   86  65  49 W6        29.97R
SYLVANIA       PTCLDY    88  66  47 CALM      29.98R HX  90
CLAXTON        FAIR      84  68  58 S3        29.98R

...CSRA...CENTRAL AND FAR SOUTHEAST GEORGIA...

CITY           SKY/WX    TMP DP  RH WIND       PRES   REMARKS
THOMSON        SUNNY     89  63  41 SW5       29.99S HX  90
AUGUSTA-BUSH   MOSUNNY   89  56  32 W8        29.93S
AUGUSTA-DANIEL MOSUNNY   88  56  33 VRB5      29.96R
SWAINSBORO     FAIR      88  63  42 SW5       29.98R
VIDALIA        MOSUNNY   86  61  42 CALM      29.99R
EASTMAN        FAIR      87  62  43 SW8       30.01R
HAZLEHURST     FAIR      85  63  47 SW5       29.98R
ALMA           SUNNY     86  61  42 SW5       29.98S
WAYCROSS       SUNNY     89  68  49 CALM      30.00R HX  92
JESUP          FAIR      88  64  45 CALM      29.99R
BAXLEY         FAIR      88  63  42 W6        29.99R
BRUNSWICK      MOSUNNY   86  66  51 SW7       30.01R
SAINT SIMONS   MOSUNNY   85  69  58 SW6       29.99R

$$

SCZ027-028-034-036>038-045-046-048>050-GAZ119-141-300000-
...LAKE AND SUPPLEMENTAL COASTAL OBSERVATIONS...

STATION/POSITION TIME  TEMP    WIND        PRES    WAVE   SWELL
                       AIR SEA DIR/SP/G            HT/PER HT/PER/DIR
                 (UTC) (F)     (DEG/KT/KT) (MB)    (FT/S) (FT/S/D)
UPR LAKE MARION  NOT AVBL
WINYAH BAY       2200   88     240/  7     1013.0
LAKE MURRAY      2200   86     260/ 11/ 15 1012.9S
ACE BASIN NERRS  2200   84        CALM     1015.0R
FORT PULASKI     2300   86 84  200/  7/  9 1015.5R
SAPELO ISLAND    2300   86     240/  6     1015.0S

$$

ANZ835-935-AMZ111-154-330-350-352-354-370-450-454-472-300000-
...C-MAN AND BUOY OBSERVATIONS...

STATION/POSITION TIME  TEMP    WIND        PRES    WAVE   SWELL
                       AIR SEA DIR/SP/G            HT/PER HT/PER/DIR
                 (UTC) (F)     (DEG/KT/KT) (MB)    (FT/S) (FT/S/D)
BUOY 41004       2250   82 83  210/ 12/ 14 1014.5R   4/ 7   3/ 7
BUOY 41008       2250   80 80  180/ 12/ 14 1015.7R   2/ 9   2/110/ 9
FOLLY BEACH CMAN 2300   81     210/ 16/ 18 1014.8R
CAPERS NEARSHORE 2208   83     220/ 16/ 19 1014.5R
FRIPP NEARSHORE  2200   83     210/ 12/ 16 1014.4R


STATION/POSITION TIME  TEMP    WIND        PRES    WAVE   SWELL
                       AIR SEA DIR/SP/G            HT/PER HT/PER/DIR
                 (UTC) (F)     (DEG/KT/KT) (MB)    (FT/S) (FT/S/D)
5E ST. MARYS GA  2221      78                N/A     2/ 9
FRYING PAN BUOY  2250   82 81  210/ 14/ 16 1014.6R   4/ 7   3/140/ 7
BUOY 41025       2250   79 81  260/  4/  8 1014.2R   4/ 8   3/150/ 8
CAPE LOOKOUT NC  2300   81     210/ 10/ 13 1013.8R
BUOY 41002       2250   81 80  210/ 17/ 21 1017.6R   6/ 7
BUOY 41010       2220   83 85  240/ 16/ 19 1017.7R
ST AUGUSTINE FL  2300   76 74  140/ 11/ 11 1017.3S


$$



USA.gov is the U.S. government's official web portal to all federal, state and local government web resources and services.